Temp
17 17 17 17 17 17 16 16 16 15 15 16 15 15 15 15 16 16 16 16 16 16 16 16 16 16 16 16 15 15 15 15 15 15 15 15 14 14 14 14 14 14
17 17 17 17 17 17 16 16 16 16 16 16 15 15 15 15 15 16 16 16 16 16 16 16 16 16 16 16 16 16 16 16 15 15 14 14 14 14 14 14 14 14
17 17 17 17 17 17 16 16 16 16 16 16 15 15 15 15 15 15 16 16 16 16 16 16 16 16 16 16 16 16 16 16 15 15 15 14 14 14 15 14 14 14
17 17 17 17 17 17 16 16 16 16 16 16 16 15 15 15 15 15 15 15 16 16 16 16 16 16 16 16 16 16 16 16 15 15 15 14 14 14 15 14 14 14
16 17 17 17 17 17 17 16 16 16 16 16 16 16 15 15 15 15 15 15 15 15 15 15 16 16 16 16 16 16 16 16 15 15 15 15 14 14 14 14 14 14
16 16 17 17 17 17 17 17 17 17 17 16 16 16 16 16 15 15 15 15 15 15 15 15 15 15 15 16 16 16 16 16 15 15 15 15 14 14 14 14 14 14
16 16 17 17 17 17 17 17 17 17 17 17 16 16 16 16 16 16 16 16 15 15 15 15 15 15 15 15 15 15 15 16 15 15 15 15 14 14 14 14 14 13
17 16 17 17 17 17 17 17 17 17 17 17 17 16 16 16 16 16 16 16 16 15 15 15 15 15 15 15 15 15 15 15 15 15 15 15 15 14 14 14 13 13
17 16 17 17 17 17 17 17 17 17 17 16 16 16 16 16 16 17 16 16 16 16 16 15 15 15 15 15 15 15 15 15 15 15 15 15 15 14 14 14 14 14
17 17 17 17 17 17 17 17 17 17 17 16 16 16 16 16 16 16 16 16 16 16 16 16 16 16 15 15 15 15 15 15 15 15 15 15 15 14 14 14 14 14
17 17 17 17 17 17 17 17 17 17 17 16 16 16 16 16 15 16 16 16 16 17 17 16 16 16 16 16 15 15 15 15 15 15 15 15 15 14 14 14 14 14
16 17 17 17 17 17 17 17 17 17 17 17 16 16 15 15 15 15 16 16 16 16 16 16 16 16 16 16 16 15 15 15 15 15 15 14 14 14 14 14 14 14
16 16 16 16 16 16 16 16 16 17 17 17 16 15 14 14 14 15 15 15 15 15 15 15 15 16 16 16 16 15 15 15 15 15 15 15 15 14 14 14 14 14
16 16 16 16 16 15 15 15 15 16 16 16 15 15 15 14 14 15 14 15 15 14 14 14 14 15 16 15 15 15 15 15 15 15 15 15 15 14 14 14 14 14
16 16 16 16 15 15 15 15 15 15 15 14 14 14 15 15 15 15 14 14 14 15 14 14 13 14 15 15 15 15 15 15 15 15 15 15 15 14 14 14 14 14
16 16 16 16 15 15 15 15 14 14 14 14 14 14 15 15 15 15 15 15 15 15 15 14 13 14 15 15 15 15 15 15 15 15 15 14 14 14 14 14 14 14
15 15 15 15 15 15 14 14 14 14 14 14 13 13 14 15 15 15 15 15 15 14 14 14 14 14 15 15 14 14 14 14 14 14 14 14 14 14 14 14 14 14
15 15 15 14 14 14 14 15 14 14 14 14 13 13 14 14 15 15 15 15 14 14 13 13 14 14 14 14 14 14 13 13 13 13 13 13 14 14 14 14 14 14
14 14 14 14 14 14 15 15 14 14 14 14 14 14 14 14 14 14 14 14 13 13 13 14 14 14 14 14 14 14 13 13 13 13 13 13 13 13 13 13 13 13
14 14 14 14 14 14 15 15 15 15 15 15 15 15 14 14 14 14 14 13 13 14 14 15 15 15 15 14 14 14 14 13 13 13 12 12 12 12 13 13 13 13
15 15 15 15 15 15 15 15 15 15 15 15 15 15 15 15 14 14 14 14 15 15 15 15 15 15 15 15 14 14 14 13 13 13 12 12 12 12 12 12 12 12
16 16 16 15 15 15 15 15 15 15 15 15 15 15 15 15 15 15 15 15 15 15 15 15 15 15 15 15 14 14 14 14 13 13 12 12 11 11 11 11 11 11
16 16 16 15 15 15 15 15 15 15 15 15 15 15 15 15 15 14 14 15 14 15 15 15 15 15 15 15 14 14 14 13 13 13 12 11 11 11 11 11 11 11
16 16 16 15 15 15 15 15 15 15 15 15 15 15 15 14 14 14 14 14 14 14 14 14 14 14 14 14 14 14 13 13 13 13 12 11 11 10 10 11 11 11
15 15 15 15 15 15 15 15 15 15 15 15 15 15 14 14 14 14 14 14 14 14 14 14 14 14 14 14 14 13 13 13 13 12 11 11 11 10 10 10 10 10
14 14 15 15 15 15 15 15 15 15 15 15 15 14 14 14 14 14 14 14 14 14 14 14 14 14 13 13 13 13 12 12 12 12 11 11 10 10 10 10 10 10
Height
813 815 816 815 814 815 816 817 818 818 819 819 820 821 822 823 824 824 824 824 823 823 824 825 826 827 827 827 828 828 829 830 831 832 833 834 834 834 835 835 836 836
812 813 815 815 815 816 817 817 818 819 820 821 822 822 823 824 824 824 824 824 824 824 825 825 826 827 828 828 828 829 830 831 832 833 834 835 835 836 836 836 836 837
811 812 813 814 815 816 817 818 819 820 822 823 823 824 824 825 825 825 825 825 825 825 825 826 827 828 828 829 829 829 830 831 832 833 835 836 836 837 837 837 837 837
810 811 812 814 816 817 818 819 820 821 822 823 824 825 826 826 827 826 826 826 826 826 826 826 827 827 828 829 829 830 830 831 832 833 835 836 837 837 837 838 838 838
809 811 812 813 815 817 819 820 821 821 822 824 825 825 826 827 827 827 827 827 827 827 827 827 827 827 828 828 829 829 830 831 832 834 835 836 837 838 838 838 838 838
808 810 811 813 814 816 818 819 821 822 822 823 824 825 826 827 827 828 828 828 828 829 829 829 829 829 829 829 829 830 830 831 832 834 835 836 837 838 838 839 839 839
806 809 811 813 814 815 817 818 821 822 822 823 824 825 826 827 827 828 828 829 829 829 830 830 831 831 831 831 831 831 831 832 833 834 835 836 837 837 838 839 839 840
805 807 809 812 813 815 816 818 820 821 822 823 824 825 826 827 828 828 828 829 829 830 831 831 832 832 832 832 832 832 832 832 833 834 835 836 836 837 838 839 839 840
805 806 808 810 811 813 815 817 818 820 821 822 823 824 826 827 828 828 828 829 830 831 831 832 832 832 833 833 833 833 833 833 834 834 835 836 836 837 838 838 839 839
804 805 806 807 809 811 814 816 817 818 819 820 821 823 826 828 828 828 828 829 829 830 831 831 832 832 832 833 833 834 834 835 835 835 836 836 837 837 837 838 838 838
802 803 804 805 807 809 812 813 815 816 818 818 819 821 824 826 827 827 827 827 828 828 829 830 831 831 832 832 832 833 833 834 835 836 837 837 838 838 838 838 838 838
799 801 803 804 806 808 810 812 813 815 816 817 817 818 821 824 825 826 826 826 827 828 828 829 830 830 831 831 832 832 833 833 834 835 836 837 838 838 838 838 838 838
799 801 803 804 806 808 809 811 813 814 815 815 815 816 819 821 822 824 824 825 826 828 829 829 830 830 830 830 831 831 832 833 833 834 835 836 837 837 837 837 837 838
799 801 802 803 805 806 808 810 812 813 813 814 814 815 817 818 820 822 823 824 824 826 829 830 830 829 829 829 830 830 831 831 832 833 833 834 835 836 836 836 836 836
799 801 802 803 804 805 807 808 810 811 812 813 814 816 817 817 819 822 823 823 822 823 826 829 830 829 827 828 828 828 829 829 830 831 832 832 833 834 834 835 835 835
799 800 800 801 802 804 806 807 808 811 813 813 813 815 817 817 818 820 821 820 820 821 823 825 827 827 826 826 826 827 827 828 828 829 830 830 831 832 832 833 833 833
799 800 800 800 801 804 806 807 808 810 811 812 811 813 816 817 817 817 817 818 818 819 821 822 824 824 824 824 825 825 826 826 827 827 828 828 829 829 830 830 831 831
800 800 800 801 802 804 805 806 807 809 809 810 811 812 814 815 815 815 816 817 818 819 820 821 821 822 822 823 823 823 824 824 825 825 825 826 827 827 827 828 828 829
800 800 801 801 802 804 805 805 806 807 808 809 810 811 812 813 813 814 815 817 818 819 819 819 819 820 821 821 821 821 822 822 822 823 823 824 824 825 825 825 826 827
799 800 801 802 803 803 804 804 804 805 806 807 808 809 810 811 812 813 815 816 817 817 817 817 818 819 819 820 820 820 820 820 820 821 821 821 822 822 822 823 823 824
798 799 800 801 802 802 803 803 803 804 805 806 807 808 809 811 812 813 814 814 815 815 816 816 817 818 818 819 819 819 819 819 819 819 819 819 819 820 820 821 822 823
796 797 798 800 801 801 802 803 803 804 805 806 807 808 809 810 811 812 812 813 814 814 815 815 816 817 817 817 818 818 818 817 817 817 817 817 817 818 818 819 820 822
796 796 797 799 800 801 802 803 803 804 805 806 807 808 808 809 810 811 811 812 813 813 814 814 815 815 816 816 816 816 816 816 816 816 816 816 816 817 817 818 819 821
796 797 797 798 799 800 801 802 803 804 805 806 807 807 808 809 809 810 811 811 812 813 813 813 814 814 814 815 815 815 815 815 815 814 815 815 815 816 817 818 819 820
797 798 798 799 799 800 800 801 802 803 804 805 806 806 807 808 808 809 810 811 811 812 812 812 812 812 812 813 813 813 813 814 814 814 814 814 815 816 816 817 818 819
798 798 799 799 799 799 800 800 801 802 803 804 805 806 806 807 808 809 809 810 810 810 810 810 810 810 810 811 811 812 812 812 812 813 813 814 815 815 816 817 818 819
Wind_Speed
20 16 17 20 19 19 20 19 16 14 13 12 11 12 13 12 11 10 9 9 11 11 11 10 10 9 9 9 9 9 8 7 7 6 6 8 9 9 9 9 8 8
22 19 21 23 20 19 20 18 16 14 13 12 11 12 14 13 12 11 10 10 11 11 11 11 10 10 9 9 9 9 9 8 8 7 7 8 8 8 8 9 8 7
24 24 26 24 21 20 20 18 15 13 13 12 11 12 14 13 13 12 11 11 10 11 11 11 11 10 10 10 9 9 10 9 9 9 8 8 8 8 9 9 8 8
25 28 27 23 20 19 19 17 15 14 13 12 11 13 14 13 12 12 12 11 11 11 11 11 11 11 10 10 10 10 10 10 10 9 9 8 8 8 8 8 8 9
26 29 27 23 20 19 18 16 15 14 14 13 13 14 14 14 13 12 12 13 13 11 11 11 11 11 11 11 10 10 11 11 11 10 9 9 8 7 7 7 7 8
26 29 28 24 21 20 19 16 14 15 14 13 14 15 15 15 14 13 13 14 15 13 12 12 11 11 10 11 10 10 10 11 11 10 9 9 8 6 6 5 5 6
27 28 27 24 22 20 19 15 14 16 16 14 15 16 16 16 15 14 13 14 16 16 15 13 12 11 10 10 10 10 9 10 10 10 9 9 8 7 7 6 4 4
25 27 25 24 22 21 19 16 14 18 20 19 18 17 17 16 16 15 14 14 15 16 17 16 14 13 12 12 11 11 10 10 10 10 10 9 9 8 8 7 5 3
22 24 24 23 24 24 22 17 16 19 22 23 21 20 19 18 17 16 15 15 15 16 17 17 17 15 14 13 13 12 11 11 11 11 11 11 10 9 9 8 6 5
23 24 24 25 26 26 23 19 18 20 23 24 23 22 21 20 20 19 18 17 16 15 16 17 17 17 16 15 14 14 13 12 12 12 12 12 11 10 10 9 8 6
24 25 27 26 26 26 24 20 20 22 23 23 23 23 23 23 24 24 22 21 19 17 17 17 17 17 17 16 16 15 15 15 15 14 14 14 13 11 11 11 9 8
26 27 27 26 26 26 25 24 23 24 24 23 23 24 26 26 28 27 25 24 23 20 19 19 18 18 17 17 17 17 17 16 17 17 16 16 16 15 14 13 12 11
27 26 25 25 24 24 25 26 25 25 26 26 27 27 27 28 29 29 26 25 24 23 23 22 21 20 19 19 19 19 19 18 18 18 19 19 19 18 17 16 15 14
26 26 25 23 21 21 21 21 23 26 27 28 28 26 27 27 27 25 24 25 24 23 24 25 24 23 22 22 22 21 21 21 20 20 21 21 21 21 20 19 17 16
23 24 23 23 22 21 19 19 23 25 23 23 22 20 21 22 19 19 21 22 21 20 22 26 29 28 25 24 25 25 24 24 23 23 23 24 24 24 23 22 20 18
21 21 21 21 22 21 20 22 24 21 18 19 19 18 19 18 16 17 19 20 18 18 20 26 30 29 25 24 26 26 26 26 26 26 26 26 26 26 25 24 23 21
20 20 20 20 21 22 23 25 23 20 20 22 20 17 17 17 20 21 21 20 18 18 21 25 26 24 22 23 24 24 24 25 25 25 25 25 26 28 28 27 26 24
18 19 19 21 22 22 23 24 23 21 21 21 20 16 14 16 20 21 19 18 19 20 23 22 18 16 16 18 19 19 20 21 22 23 23 23 25 27 30 30 28 26
15 17 19 20 21 20 19 19 17 16 15 14 13 11 10 12 14 14 14 17 20 20 17 12 8 7 8 9 10 11 12 15 17 19 21 22 24 25 27 29 28 26
13 15 17 17 16 15 14 13 11 10 8 7 6 5 6 7 7 8 9 11 12 10 8 7 6 5 5 5 6 6 7 9 11 15 18 20 22 22 23 25 26 26
11 12 13 13 12 11 10 9 8 7 6 5 4 4 4 4 4 4 3 3 3 4 5 6 7 6 6 6 6 6 6 7 9 11 14 17 19 19 19 21 23 23
9 10 11 10 10 10 10 9 8 7 6 5 4 4 4 3 3 3 2 1 2 3 5 6 7 8 9 9 9 9 8 8 9 10 11 12 13 14 14 16 17 17
7 8 10 11 12 13 11 9 8 6 5 3 2 1 1 1 1 1 1 2 3 4 6 8 8 9 9 10 11 11 10 9 8 8 8 8 8 9 10 11 13 15
8 9 11 13 13 12 11 9 7 6 4 3 1 2 2 1 2 3 4 4 5 6 8 9 10 10 10 11 12 12 11 10 8 6 6 7 8 9 10 12 13 13
8 11 13 13 12 11 9 7 6 5 3 3 5 6 5 4 5 6 6 7 8 9 10 11 11 11 11 12 12 11 10 9 8 7 7 10 11 11 12 12 12 11
2 6 9 11 11 10 8 7 7 6 4 5 7 7 7 7 7 8 8 10 12 12 12 12 13 13 12 11 10 10 9 9 9 9 11 13 14 13 13 12 11 11
Wind_Direction
193 195 205 199 189 190 190 190 196 201 204 202 193 184 180 180 180 181 177 157 142 136 132 133 131 128 126 127 139 149 150 149 142 141 141 132 125 120 116 112 112 114
198 205 209 199 192 193 193 194 199 204 205 202 199 193 187 186 187 191 186 166 151 144 140 140 138 135 131 128 131 136 142 147 144 149 154 145 138 132 121 111 106 106
204 202 201 197 196 197 196 199 202 208 210 207 206 201 194 191 190 193 190 177 164 156 151 148 145 143 141 138 137 134 134 138 140 148 154 148 147 144 131 116 104 103
209 202 198 197 200 200 199 202 205 210 212 213 212 205 200 197 196 198 197 191 184 174 166 159 154 153 152 150 147 142 139 136 137 145 149 145 148 147 137 123 107 103
211 203 199 197 200 202 201 205 212 214 213 216 214 208 205 202 201 204 205 203 202 195 186 178 171 166 166 167 163 156 153 148 144 148 149 146 149 148 140 128 112 104
209 204 200 197 200 202 202 205 214 217 217 220 217 212 210 206 204 206 207 207 208 208 204 197 191 187 183 183 179 172 166 160 157 157 157 154 155 159 154 140 121 105
204 204 200 200 202 203 202 203 216 224 224 224 222 218 216 213 212 211 210 210 210 212 213 209 207 206 204 201 196 190 183 177 174 172 173 170 165 169 171 164 151 123
201 202 200 202 203 203 201 200 216 228 227 226 227 225 223 222 222 220 219 219 215 215 215 215 218 218 216 216 214 207 200 196 195 192 192 189 180 178 178 176 179 168
201 200 200 202 204 204 202 202 218 228 229 230 230 229 228 228 229 228 227 227 224 222 220 219 223 225 225 226 226 225 219 212 212 212 210 207 200 192 188 188 191 186
200 200 199 201 203 204 202 207 221 228 230 232 233 233 234 234 234 232 230 231 230 229 227 226 228 230 232 233 233 236 236 232 230 228 227 227 221 211 205 206 203 196
201 202 201 200 201 203 205 212 223 228 231 233 235 236 236 237 237 235 233 233 232 233 233 233 234 234 236 238 239 240 241 243 244 243 244 244 239 232 225 224 220 212
201 199 198 199 202 205 208 212 220 228 230 230 233 235 232 233 237 237 238 238 238 241 242 240 240 241 242 244 244 244 243 245 247 249 251 251 250 244 238 236 235 231
197 195 194 196 201 207 211 214 221 228 228 227 231 233 231 231 233 235 238 240 242 247 250 250 249 249 251 251 250 250 248 248 249 251 252 253 254 251 245 242 241 239
196 193 193 196 198 202 206 212 219 222 222 224 227 231 232 231 231 236 242 243 243 246 254 259 259 256 256 257 257 256 254 253 253 253 255 255 254 253 250 246 244 242
202 199 201 204 205 203 204 212 217 217 219 224 225 225 230 230 231 241 249 249 246 248 255 260 259 257 257 257 258 260 259 259 257 256 257 257 256 254 251 247 244 243
216 216 218 218 216 214 214 218 220 217 221 234 233 222 224 235 241 243 247 250 249 248 251 252 252 254 258 259 259 259 260 260 261 260 260 260 260 258 254 249 244 241
222 227 230 226 222 220 220 224 229 229 230 240 244 225 214 232 245 244 246 251 251 249 248 247 249 255 261 262 261 259 258 260 262 263 263 263 263 260 256 253 247 241
222 227 229 227 224 224 225 228 234 235 230 234 240 232 216 227 240 244 249 252 248 245 245 246 250 257 261 263 264 263 263 263 264 264 264 262 261 259 256 254 248 240
215 219 220 222 222 222 224 226 228 231 228 226 233 235 227 226 232 238 240 238 237 238 241 246 255 264 269 272 275 274 270 265 263 263 263 262 261 260 257 253 247 239
209 213 213 216 218 220 223 227 227 226 222 216 215 216 213 212 220 229 230 231 236 241 248 256 259 267 282 291 295 294 283 272 266 263 262 262 262 262 259 254 247 238
212 213 214 218 221 219 215 207 197 186 172 167 161 153 153 155 165 185 203 223 246 256 260 263 265 271 279 286 294 291 284 284 278 267 260 259 260 260 257 252 245 236
211 212 216 215 204 193 183 171 165 160 154 152 143 130 124 123 131 142 161 203 242 264 272 274 276 275 276 281 284 279 277 284 285 275 264 257 255 253 248 243 238 227
209 210 204 192 180 176 174 172 169 166 160 157 148 120 99 92 85 46 359 321 304 295 290 287 284 280 279 278 278 276 275 276 279 275 262 247 239 236 231 221 208 201
205 202 188 180 179 181 182 182 180 178 181 196 245 311 326 338 342 341 338 326 315 307 301 296 290 285 280 277 277 276 273 272 271 258 231 214 206 200 198 195 190 190
204 205 199 196 198 198 198 200 197 192 208 273 298 306 310 317 325 332 335 330 321 314 306 300 295 289 281 276 274 272 268 265 258 235 205 195 192 186 183 186 189 190
198 212 211 210 210 207 203 202 202 206 237 278 289 291 290 293 302 312 322 326 324 320 313 308 306 300 290 279 271 266 261 252 240 224 205 195 191 189 184 179 177 176